User: anonymous   Login
Location: Caltech
(34.1382°N, 118.1253°W)
Time: 20:18:59
(UTC-08:00)
Language:

Gbstr 26 Del rocket - Orbit

View from above orbital plane
View from above orbital plane
View from above satellite
View from above satellite

Ground track
Ground track

The orbit data is extracted from the following two-line orbital elements,

1 25876U 99041E   18054.45594829 -.00000008  00000-0  40735-4 0  9997
2 25876  51.7643  45.4505 0531423  40.4258 323.4924 14.04173345949922
Epoch (UTC): 23 February 2018 10:56:33
Eccentricity: 0.0531423
inclination: 51.7643°
perigee height: 494 km
apogee height: 1265 km
right ascension of ascending node: 45.4505°
argument of perigee: 40.4258°
revolutions per day: 14.04173345
mean anomaly at epoch: 323.4924°
orbit number at epoch: 94992

The dashed part of the orbit path shows where the satellite is in the earth's shadow,  

DLR